TimeEDT,TemperatureF,Dew PointF,Humidity,Sea Level PressureIn,VisibilityMPH,Wind Direction,Wind SpeedMPH,Gust SpeedMPH,PrecipitationIn,Events,Conditions,WindDirDegrees,DateUTC
12:54 AM,52.0,44.1,74,29.91,10.0,Calm,Calm,-,N/A,,Clear,0,2013-06-16 04:54:00
1:54 AM,48.0,43.0,83,29.91,10.0,Calm,Calm,-,N/A,,Clear,0,2013-06-16 05:54:00
2:54 AM,46.0,43.0,89,29.91,10.0,Calm,Calm,-,N/A,,Clear,0,2013-06-16 06:54:00
3:54 AM,48.0,44.1,86,29.91,10.0,Calm,Calm,-,N/A,,Clear,0,2013-06-16 07:54:00
4:54 AM,48.0,44.1,86,29.91,10.0,Calm,Calm,-,N/A,,Clear,0,2013-06-16 08:54:00
5:54 AM,55.0,45.0,69,29.91,10.0,Calm,Calm,-,N/A,,Clear,0,2013-06-16 09:54:00
6:54 AM,55.9,48.0,75,29.91,10.0,Calm,Calm,-,N/A,,Clear,0,2013-06-16 10:54:00
7:54 AM,64.0,48.9,58,29.91,10.0,Calm,Calm,-,N/A,,Clear,0,2013-06-16 11:54:00
8:54 AM,68.0,48.9,50,29.90,10.0,Variable,4.6,-,N/A,,Clear,0,2013-06-16 12:54:00
9:54 AM,71.1,48.9,45,29.88,10.0,WSW,5.8,-,N/A,,Clear,240,2013-06-16 13:54:00
10:54 AM,73.0,50.0,44,29.85,10.0,Variable,3.5,-,N/A,,Mostly Cloudy,0,2013-06-16 14:54:00
11:54 AM,75.9,52.0,43,29.83,10.0,Variable,3.5,-,N/A,,Mostly Cloudy,0,2013-06-16 15:54:00
12:54 PM,75.0,46.0,36,29.81,10.0,SW,10.4,16.1,N/A,,Clear,220,2013-06-16 16:54:00
1:54 PM,73.9,46.9,38,29.79,10.0,South,8.1,-,N/A,,Scattered Clouds,190,2013-06-16 17:54:00
2:54 PM,73.9,50.0,43,29.76,10.0,SSW,9.2,-,N/A,,Mostly Cloudy,210,2013-06-16 18:54:00
3:54 PM,71.1,53.1,53,29.75,10.0,South,4.6,-,N/A,,Overcast,190,2013-06-16 19:54:00
4:54 PM,70.0,54.0,57,29.75,10.0,Calm,Calm,-,0.00,Rain,Light Rain,0,2013-06-16 20:54:00
5:54 PM,64.9,57.9,78,29.74,10.0,South,3.5,-,0.01,Rain,Light Rain,190,2013-06-16 21:54:00
6:54 PM,64.9,57.0,75,29.74,10.0,Variable,5.8,-,0.00,,Overcast,0,2013-06-16 22:54:00
7:54 PM,64.0,55.9,75,29.73,10.0,WNW,3.5,-,N/A,,Overcast,290,2013-06-16 23:54:00
8:54 PM,62.1,57.0,84,29.73,10.0,Calm,Calm,-,N/A,,Overcast,0,2013-06-17 00:54:00
9:54 PM,61.0,57.0,87,29.73,10.0,SSW,4.6,-,N/A,,Mostly Cloudy,210,2013-06-17 01:54:00
10:54 PM,61.0,57.0,87,29.73,10.0,WSW,3.5,-,N/A,,Mostly Cloudy,240,2013-06-17 02:54:00
11:54 PM,60.1,57.0,90,29.73,10.0,WSW,4.6,-,N/A,,Scattered Clouds,240,2013-06-17 03:54:00